AQI (37)

Current Conditions for Foresthill, CA. Clear skies, Dry   
Visibility: 10 miles
Foresthill Advisory text: No Warning

  Summary / Temperature 

Current Temperature
40.0°F
4.4°C
(24/hr Ago)
45.8°F
(Apparent temp)
35.8°F
Cool
Wind Chill Graphs
37.3°F 
Wind Chill-Avg
38.6°F 3.7°C
 --- Virtual Temp: 41.6°F ---

 Temp Rate:

 24/hr Difference:

 Avg Running Temp:

 Todays High:

 Todays Low:

 Y-days High:

 Y-days Low:

 Todays WChill:

 Y-days WChill:

 Evapotranspiration:

-0.1°F/hr 

-5.8°F

39.9°F

42.3°F 1:12am

39.6°F 7:20am

48.8°F 10:56am

42.2°F 11:30pm

32.6°F 6:42am

36.4°F 8:56pm

0.001 in

115' Above Ground

 Temperature:

 6'AGL VRS 115'AGL:

 Avg Running Temp:

 Humidity:

 Todays High:

 Todays Low:

 Y-days High:

 Y-days Low:

44.0°F 

+4°F

42.6°F

77% 

44.0°F 12:08am

41.0°F 6:49am

50.0°F 10:13am

42.0°F 8:29pm

Temp & Humidity Graphs

  Wind 

Wind Speed

 2.0 mph

Gusting to

 11.0 mph

Wind from ESE

102°  ESE

Light air

 Avg speed:

 Wind Run:

 Peak Gust:

  3.0 mph 

6.0 miles

  12.0 mph 6:31am

  Almanac  

Moon age: 28 days,7 hours,54 minutes,2%

New moon
1%
Illuminated
28 days in cycle

 Moonrise:

 Moonset:

 Sunrise:

 Sunset:

 Solar Noon:

5:53am

4:32pm

6:53am

4:45pm

11:49am

1min 42s less daylight tomorrow 

  Solar Radiation 

(Current Solar)
  105 W/m2 (81%)
(Todays High)
 123 W/m2@7:49am
Feels like: 41.2°F in the sun

Rain

 Rain Today:

 Rain Rate (/hr):

 Rain last hour:

 Rain Yesterday:

 This Month:

 Season Total:

2 Days Since Last Dry Day

0.00 in

0.000 in

0.00 in

0.32 in

2.83 in

7.09 in

Updated Time

Updated: 11/21/14  8:01am

(Updated  sec ago)

Humidity & Barometer

 Humidity:

 Wetbulb:

 Dew Point:

 Barometer:

94% 

39.3°F 

38.4°F 

30.139 inHg 

 Baro Trend:  Rising Slowly 
Northern Calif
Preparedness
Fire 
Level 

    UV Index  

(Current UV)
0.0  None
(Todays High) @ 12:00am
0.0   None

Weather Underground 5 day Forecast

Fri Sat Sun Mon Tue
Chance Rain Rain Clear Clear Clear
Chance Rain Rain Clear Clear Clear
54° 52° 57° 63° 63°
50° 37° 43° 46° 52°

Foresthill Probe 2 Stats  
Foresthill Probe 2: is located on Thomas Street
at 3000 feet. The main Foresthill Weather site
is located on Melody ln at the 2860 foot elevation

Calm
38.2°F
3.4°C
Temp Rate:
-0.2°F
Calm
Gusting to
2.0 mph
(Humidity)
97%
Wind from SE
128°  SE
Updated: 21/11/14 - 08:00:48
 Todays High: 41.2°F 00:49
 Todays Low: 37.7°F 07:02
 Rain Today: 0.00 in
 Season Total: 6.59 in

Foresthill Wx: Monthly,Yearly, Highs and Lows 

Foresthill  
This Weather Data is coming from the main Foresthill
Weather site located on Melody ln at the 2860 foot
elevation
Not Foresthill Probe 2
Weather Data
Month
  High
Month
  Low
Year
High
Year
Low
Temp 70.8°F
11/9/14
37.7°F
11/2/14
96.4°F
7/14/14
32.0°F
2/4/14
Humidity 100%
11/2/14
33%
11/18/14
100%
3/1/14
9%
10/12/14
Heat Index 71.0°F
11/8/14
41.1°F
11/16/14
95.0°F
7/14/14
35.5°F
2/5/14
Wind Chill 70.8°F
11/9/14
28.6°F
11/2/14
96.4°F
7/14/14
21.6°F
2/5/14
Wind Gust 29 mph
11/19/14
0 mph
11/1/14
40 mph
3/12/14
0 mph
1/1/14
Barometer 30.41 in
11/4/14
29.70 in
11/1/14
30.55 in
1/14/14
29.47 in
2/28/14
ET 0.11 in
11/9/14
0.00 in
11/1/14
0.27 in
7/4/14
0.00 in
1/1/14
Dew Point 54.0°F
11/8/14
22.2°F
11/16/14
64.6°F
8/4/14
5.1°F
1/4/14
Infrared Satellite Regional Radar Satellite Imagery Sacramento,CA.  (click to enlarge)
NWS Weather Forecast - Outlook: Today and Tonight
Today

Chance Rain. Chance for Measurable Precipitation 30%
Chance
Rain
Hi 52 °F
NWS forecast: A 30 percent chance of rain after 4pm. Mostly cloudy, with a high near 52. Calm wind becoming west southwest around 5 mph in the afternoon.
Tonight

Rain. Chance for Measurable Precipitation 80%
Rain

Lo 45 °F
NWS forecast: Rain, mainly after 10pm. Low around 45. Light south southeast wind becoming south 5 to 9 mph in the evening. Chance of precipitation is 80%. New precipitation amounts between a quarter and half of an inch possible.
NWS Weather Forecast - Summary
Updated: Friday, November 21, 2014 - 6:14am (PST)
YR.NO 10 Day Weather forecast
Last update: 11/20/2014 @ 23:03
Next update: 11/21/2014 @ 12:00
Provided by: 22
      Temperature Precipitation Pressure Wind  
Today
11/21/2014
10:00 13:00 46°F   30.09 inHg Calm from east-southeast 0 mph
  13:00 19:00 52°F   30.03 inHg Light breeze from west-southwest 4 mph
  19:00 01:00 45°F   30.11 inHg Light air from south-southeast 1 mph
    (Click to enlarge)
meteogram

    Forecast for next 9 days

      Temperature Precip Pressure Wind  
Saturday
11/22/2014
01:00 07:00 43°F 0.45 in 30.12 inHg Light breeze from east-southeast 4 mph
  07:00 13:00 43°F 0.54 in 30.08 inHg Light breeze from southeast 5 mph
  13:00 19:00 46°F 0.10 in 30.09 inHg Gentle breeze from south 10 mph
  19:00 01:00 45°F   30.20 inHg Light air from northeast 2 mph
      Temperature Precip Pressure Wind  
Sunday
11/23/2014
01:00 07:00 34°F   30.24 inHg Light breeze from east-northeast 4 mph
  07:00 13:00 34°F   30.23 inHg Light breeze from east-northeast 7 mph
  10:00 16:00 50°F   30.25 inHg Light air from east-northeast 3 mph
  16:00 22:00 50°F   30.22 inHg Light air from west 3 mph
  22:00 04:00 36°F   30.25 inHg Light breeze from east-northeast 5 mph
      Temperature Precip Pressure Wind  
Monday
11/24/2014
04:00 10:00 36°F   30.26 inHg Light breeze from east-northeast 7 mph
  10:00 16:00 55°F   30.32 inHg Light breeze from east-northeast 5 mph
  16:00 22:00 55°F   30.29 inHg Light breeze from north-northeast 5 mph
  22:00 04:00 39°F   30.36 inHg Light breeze from east-northeast 6 mph
      Temperature Precip Pressure Wind  
Tuesday
11/25/2014
04:00 10:00 36°F   30.38 inHg Light breeze from east-northeast 4 mph
  10:00 16:00 55°F   30.45 inHg Light air from northeast 1 mph
  16:00 22:00 57°F   30.40 inHg Light air from west 2 mph
  22:00 04:00 41°F   30.40 inHg Light breeze from east-northeast 4 mph
      Temperature Precip Pressure Wind  
Wednesday
11/26/2014
04:00 10:00 39°F   30.35 inHg Light breeze from east-northeast 5 mph
  10:00 16:00 59°F   30.32 inHg Light air from east-northeast 2 mph
  16:00 22:00 59°F   30.25 inHg Light air from west 2 mph
  22:00 04:00 39°F   30.25 inHg Light breeze from east-northeast 4 mph
      Temperature Precip Pressure Wind  
Thursday
11/27/2014
04:00 10:00 37°F   30.19 inHg Light breeze from east-northeast 5 mph
  10:00 16:00 57°F   30.17 inHg Light breeze from east 4 mph
  16:00 22:00 57°F   30.10 inHg Light air from west-southwest 2 mph
  22:00 04:00 39°F   30.08 inHg Light breeze from east 4 mph
      Temperature Precip Pressure Wind  
Friday
11/28/2014
04:00 10:00 37°F   30.07 inHg Light breeze from east 4 mph
  10:00 16:00 52°F   30.12 inHg Light breeze from south-southwest 4 mph
  16:00 22:00 48°F   30.15 inHg Light air from west-southwest 2 mph
  22:00 04:00 34°F   30.19 inHg Light breeze from east-northeast 4 mph
      Temperature Precip Pressure Wind  
Saturday
11/29/2014
04:00 10:00 32°F   30.19 inHg Light breeze from east-northeast 5 mph
  10:00 16:00 52°F   30.27 inHg Light air from northeast 1 mph
  16:00 22:00 54°F   30.22 inHg Light air from west 2 mph
  22:00 04:00 36°F   30.24 inHg Light breeze from east-northeast 5 mph
      Temperature Precip Pressure Wind  
Sunday
11/30/2014
04:00 10:00 36°F   30.19 inHg Light breeze from east 5 mph
  10:00 16:00 55°F   30.23 inHg Light air from east-northeast 3 mph

Weather History For Friday, November 21, 2014


On this Day - In Weather History ...
Data courtesy of weatherforyou.com
powered by Cumulus v1.9.3 (1059)
Ambient Weather VWS v14.00
Top Contact Website Map Copyright © 2007 - 2014 Foresthillweather.com Never base important decisions on this or any weather information obtained from the Internet